CAPE
4 0 0 0 0 0 0 0 0 0 0 0 0 0 0 0 0 0 0 0 0 0 0 790 1321 974 676 581 462 291 208 66 0 0 0 0 0 0 0 0 0 0 0 0 0 0 0 0 3
0 0 0 0 0 0 0 0 0 0 0 0 0 0 0 0 0 0 0 0 0 0 0 541 1482 1294 1001 850 735 552 371 233 75 15 0 0 2 0 0 0 0 1 2 2 0 0 0 0 0
0 0 0 0 0 0 0 0 0 0 0 0 0 0 0 0 0 0 0 0 0 0 12 357 1635 1474 1276 1144 1074 997 670 598 262 183 156 216 221 169 134 41 0 6 19 21 17 14 1 3 0
0 0 0 0 0 0 0 0 0 0 0 0 0 0 0 0 0 0 0 0 0 0 26 358 1639 1625 1512 1553 1479 1475 1051 925 674 409 742 509 490 360 311 132 50 45 9 31 32 44 50 4 3
0 0 0 0 0 0 0 0 0 0 0 0 0 0 0 0 0 0 0 0 0 0 12 380 1659 1794 1841 1686 1773 1810 1580 1461 1378 948 846 763 666 550 360 245 221 59 62 63 51 69 82 109 20
0 0 0 0 0 0 0 0 0 0 0 0 0 0 0 0 0 0 0 0 0 0 61 313 1470 1871 1926 2105 1980 1917 1811 1744 1774 1700 1436 1100 794 655 330 260 138 101 88 62 63 94 235 274 165
0 0 0 0 0 0 0 0 0 0 0 0 0 0 0 0 0 0 6 0 0 2 57 291 944 1567 1918 2148 1933 1917 2041 2124 1953 1620 1314 938 453 249 184 114 98 59 46 45 61 70 155 298 137
0 0 0 0 0 0 0 0 0 0 0 0 0 0 0 0 0 0 0 0 1 19 60 239 655 1145 971 1302 2133 2083 1887 1559 1249 717 480 273 80 44 34 77 25 4 29 56 108 86 66 227 237
0 0 0 0 0 0 0 0 0 0 0 0 0 0 0 0 0 0 0 0 0 0 0 8 153 370 327 377 457 1037 609 505 532 402 325 279 0 0 7 8 0 0 6 12 19 12 87 318 111
0 0 0 0 0 0 0 0 0 0 0 0 0 0 0 0 0 0 0 0 0 0 0 0 0 20 0 0 0 15 14 32 23 23 0 6 0 0 0 0 0 0 9 20 28 60 164 158 20
0 0 0 0 0 0 0 0 0 0 0 0 0 0 0 0 0 0 0 0 0 0 0 0 0 0 0 0 0 0 0 0 0 0 0 0 0 0 1 0 0 0 0 0 0 0 0 10 0
0 0 0 0 0 0 0 0 0 0 0 0 0 0 0 0 0 0 0 0 0 0 0 0 0 0 0 0 0 0 0 0 0 0 0 0 0 0 0 0 0 0 0 0 0 0 0 0 2
0 0 0 0 0 0 0 0 0 0 0 0 0 0 0 0 0 0 0 0 0 0 0 0 0 0 0 0 0 0 0 0 0 0 0 0 0 0 0 0 0 0 0 0 0 0 0 0 0
0 0 0 0 0 0 0 0 0 0 0 0 0 0 0 0 0 0 0 0 0 0 0 0 0 0 0 0 0 0 0 0 0 0 0 0 0 0 0 0 0 0 0 0 0 0 0 0 0
0 0 0 0 0 0 0 0 0 0 0 0 0 0 0 0 0 0 0 0 0 0 0 0 0 0 0 0 0 0 0 0 0 0 0 0 0 0 0 0 0 0 0 0 0 0 0 0 0
0 0 0 0 0 0 0 0 0 0 0 0 0 0 0 0 0 0 0 0 0 0 0 0 0 0 0 0 0 0 0 0 0 0 0 0 0 0 0 0 0 0 0 0 0 0 1 1 1
0 0 0 0 0 0 0 0 0 0 0 0 0 0 0 0 0 0 0 0 0 0 0 0 0 0 0 0 0 0 0 0 0 0 0 0 0 0 0 0 0 0 0 0 0 0 0 1 1
0 0 0 0 0 0 0 0 0 0 0 0 0 0 0 0 0 0 0 0 0 0 0 0 0 0 0 0 0 0 0 0 0 0 0 0 0 0 0 0 0 0 0 0 1 0 0 0 37
0 0 0 0 0 0 0 0 0 0 0 0 0 0 0 0 0 0 0 0 0 0 0 0 0 0 0 0 0 0 0 0 0 0 0 0 0 0 0 0 0 0 0 0 0 0 0 18 21
0 0 0 0 0 0 0 0 0 0 0 0 0 0 0 0 0 0 0 0 0 0 0 0 0 0 0 0 0 0 0 0 0 0 0 0 0 0 0 0 0 0 0 0 0 0 1 3 25
0 0 0 0 0 0 0 0 0 0 0 0 0 0 0 0 0 0 0 0 0 0 0 0 0 0 0 0 0 0 0 0 0 0 0 0 0 0 0 0 0 0 0 0 0 0 7 31 50
0 0 0 0 0 0 0 0 0 0 0 0 0 0 0 0 0 0 0 0 0 0 0 0 0 0 0 0 0 0 0 0 0 0 0 0 0 0 0 0 0 0 0 0 0 0 0 6 70
0 0 0 0 0 0 0 0 0 0 0 0 0 0 0 0 0 0 0 0 0 0 0 0 0 0 0 0 0 0 0 0 0 0 0 0 0 0 0 0 0 0 0 0 0 0 0 0 5
0 0 0 0 0 0 0 0 0 0 0 0 0 0 0 0 0 0 0 0 0 0 0 0 0 0 0 0 0 0 0 0 0 0 0 0 0 0 0 1 0 0 0 0 0 0 0 1 9
0 0 0 0 0 0 0 0 0 0 0 0 0 0 0 0 0 0 0 0 0 0 0 0 0 0 0 0 0 0 0 0 0 0 0 0 0 0 0 0 0 0 0 0 0 0 0 12 36
0 0 0 0 0 0 0 0 0 0 0 0 0 0 0 0 0 0 0 0 0 0 0 0 0 0 0 0 0 0 0 0 0 0 0 0 0 0 0 0 0 0 0 0 0 0 0 1 9
0 0 0 0 0 0 0 0 0 0 0 0 0 0 0 0 0 0 0 0 0 0 0 0 0 0 0 0 0 0 0 0 0 0 0 0 0 0 0 0 0 0 0 0 0 0 0 0 0
0 0 0 0 0 0 0 0 0 0 0 0 0 0 0 0 0 0 0 0 0 0 0 0 0 0 0 0 0 0 0 0 0 0 0 0 0 0 0 0 0 0 0 0 0 0 0 0 0
0 0 0 0 0 0 0 0 0 0 0 0 0 0 0 0 0 0 0 0 0 0 0 0 0 0 0 0 0 0 0 0 0 0 0 0 0 0 0 0 0 0 0 0 0 0 1 1 1
0 0 0 0 0 0 0 0 0 0 0 0 0 0 0 0 0 0 0 0 0 0 0 0 0 0 0 0 0 0 0 0 0 0 0 0 0 0 0 0 0 0 0 1 0 1 1 1 1
CIN
-70 -0 -0 -0 -0 -0 -0 -0 -0 -0 -0 -0 -0 -0 -0 -0 -0 -0 -0 -0 -0 -0 -0 -230 -83 -93 -99 -82 -75 -74 -65 -89 -0 -0 -0 -0 -0 -0 -0 -0 -0 -0 -0 -0 -0 -0 -0 -0 -0
-0 -0 -0 -0 -0 -0 -0 -0 -0 -0 -0 -0 -0 -0 -0 -0 -0 -0 -134 -0 -0 -0 -0 -299 -94 -88 -80 -60 -52 -52 -44 -48 -55 -100 -0 -0 -0 -0 -0 -0 -0 -0 -0 -0 -0 -0 -0 -0 -0
-0 -0 -0 -0 -0 -0 -0 -0 -0 -0 -0 -0 -0 -0 -0 -0 -0 -0 -0 -0 -0 -0 -504 -375 -108 -89 -66 -49 -36 -20 -17 -7 -23 -12 -9 -14 -33 -61 -128 -202 -0 -0 -226 -0 -0 -0 -0 -0 -0
-0 -0 -0 -0 -0 -0 -0 -0 -0 -0 -0 -0 -0 -0 -0 -0 -0 -0 -0 -0 -0 -0 -667 -394 -117 -77 -57 -27 -16 -1 -4 -0 -0 -0 -0 -0 -0 -4 -29 -72 -0 -0 -0 -0 -0 -0 -0 -0 -0
-0 -0 -0 -0 -0 -0 -0 -0 -0 -0 -0 -0 -0 -0 -0 -0 -0 -0 -0 -0 -0 -0 -568 -425 -135 -72 -37 -27 -8 -0 -0 -0 -0 -1 -0 -0 -0 -0 -22 -41 -53 -33 -0 -0 -0 -0 -27 -8 -0
-0 -0 -0 -0 -0 -0 -0 -0 -0 -0 -0 -0 -0 -0 -0 -0 -0 -0 -0 -0 -0 -0 -780 -496 -156 -79 -41 -13 -1 -0 -0 -0 -0 -0 -0 -0 -0 -0 -15 -21 -68 -83 -106 -0 -0 -0 -15 -4 -45
-0 -0 -0 -0 -0 -0 -0 -0 -0 -0 -0 -0 -0 -0 -0 -0 -0 -0 -810 -0 -0 -327 -764 -532 -247 -115 -37 -4 -0 -0 -0 -0 -0 -0 -0 -1 -21 -62 -68 -92 -105 -39 -0 -0 -0 -0 -9 -1 -14
-0 -0 -0 -0 -0 -0 -0 -0 -0 -0 -0 -0 -0 -0 -0 -0 -0 -0 -0 -0 -178 -895 -764 -584 -340 -177 -195 -96 -0 -0 -0 -0 -1 -4 -3 -6 -100 -177 -191 -107 -157 -0 -0 -0 -77 -9 -1 -0 -0
-0 -0 -0 -0 -0 -0 -0 -0 -0 -0 -0 -0 -0 -0 -0 -0 -0 -0 -0 -0 -0 -0 -0 -587 -616 -429 -405 -339 -254 -57 -92 -85 -35 -41 -12 -42 -0 -0 -18 -6 -0 -0 -0 -0 -0 -0 -1 -2 -24
-0 -0 -0 -0 -0 -0 -0 -0 -0 -0 -0 -0 -0 -0 -0 -0 -0 -0 -0 -0 -0 -0 -0 -0 -95 -490 -0 -0 -0 -192 -212 -356 -365 -320 -0 -81 -0 -0 -0 -0 -0 -0 -0 -0 -0 -20 -17 -33 -6
-0 -0 -0 -0 -0 -0 -0 -0 -0 -0 -0 -0 -0 -0 -0 -0 -0 -0 -0 -0 -0 -0 -0 -0 -0 -0 -0 -0 -0 -0 -0 -0 -0 -0 -0 -0 -0 -0 -5 -0 -0 -0 -0 -0 -0 -0 -0 -29 -0
-0 -0 -0 -0 -0 -0 -0 -0 -0 -0 -0 -0 -0 -0 -0 -0 -0 -0 -0 -0 -0 -0 -0 -0 -0 -0 -0 -0 -0 -0 -0 -0 -0 -0 -0 -0 -0 -0 -0 -0 -0 -0 -0 -0 -0 -0 -0 -0 -16
-0 -0 -0 -0 -0 -0 -0 -0 -0 -0 -0 -0 -0 -0 -0 -0 -0 -0 -0 -0 -0 -0 -0 -0 -0 -0 -0 -0 -0 -0 -0 -0 -0 -0 -0 -0 -0 -0 -0 -0 -0 -0 -0 -0 -0 -0 -0 -0 -0
-0 -0 -0 -0 -0 -0 -0 -0 -0 -0 -0 -0 -0 -0 -0 -0 -0 -0 -0 -0 -0 -0 -0 -0 -0 -0 -0 -0 -0 -0 -0 -0 -0 -0 -0 -0 -0 -0 -0 -0 -0 -0 -0 -0 -0 -0 -0 -0 -0
-0 -0 -0 -0 -0 -0 -0 -0 -0 -0 -0 -0 -0 -0 -0 -0 -0 -0 -0 -0 -0 -0 -0 -0 -0 -0 -0 -0 -0 -0 -0 -0 -0 -0 -0 -0 -0 -0 -0 -0 -0 -0 -0 -0 -0 -0 -0 -0 -0
-0 -0 -0 -0 -0 -0 -0 -0 -0 -0 -0 -0 -0 -0 -0 -0 -0 -0 -0 -0 -0 -0 -0 -0 -0 -0 -0 -0 -0 -0 -0 -0 -0 -0 -0 -0 -0 -0 -0 -0 -0 -0 -0 -0 -0 -0 -0 -0 -0
-0 -0 -0 -0 -0 -0 -0 -0 -0 -0 -0 -0 -0 -0 -0 -0 -0 -0 -0 -0 -0 -0 -0 -0 -0 -0 -0 -0 -0 -0 -0 -0 -0 -0 -0 -0 -0 -0 -0 -0 -0 -0 -0 -0 -0 -0 -0 -0 -0
-0 -0 -0 -0 -0 -0 -0 -0 -0 -0 -0 -0 -0 -0 -0 -0 -0 -0 -0 -0 -0 -0 -0 -0 -0 -0 -0 -0 -0 -0 -0 -0 -0 -0 -0 -0 -0 -0 -0 -0 -0 -0 -0 -0 -0 -0 -0 -0 -59
-0 -0 -0 -0 -0 -0 -0 -0 -0 -0 -0 -0 -0 -0 -0 -0 -0 -0 -0 -0 -0 -0 -0 -0 -0 -0 -0 -0 -0 -0 -0 -0 -0 -0 -0 -0 -0 -0 -0 -0 -0 -0 -0 -0 -0 -0 -0 -43 -63
-0 -0 -0 -0 -0 -0 -0 -0 -0 -0 -0 -0 -0 -0 -0 -0 -0 -0 -0 -0 -0 -0 -0 -0 -0 -0 -0 -0 -0 -0 -0 -0 -0 -0 -0 -0 -0 -0 -0 -0 -0 -0 -0 -0 -0 -0 -21 -72 -77
-0 -0 -0 -0 -0 -0 -0 -0 -0 -0 -0 -0 -0 -0 -0 -0 -0 -0 -0 -0 -0 -0 -0 -0 -0 -0 -0 -0 -0 -0 -0 -0 -0 -0 -0 -0 -0 -0 -0 -0 -0 -0 -0 -0 -0 -0 -91 -66 -57
-0 -0 -0 -0 -0 -0 -0 -0 -0 -0 -0 -0 -0 -0 -0 -0 -0 -0 -0 -0 -0 -0 -0 -0 -0 -0 -0 -0 -0 -0 -0 -0 -0 -0 -0 -0 -0 -0 -0 -0 -0 -0 -0 -0 -0 -0 -3 -119 -60
-0 -0 -0 -0 -0 -0 -0 -0 -0 -0 -0 -0 -0 -0 -0 -0 -0 -0 -0 -0 -0 -0 -0 -0 -0 -0 -0 -0 -0 -0 -0 -0 -0 -0 -0 -0 -0 -0 -0 -0 -0 -0 -0 -0 -0 -0 -0 -0 -109
-0 -0 -0 -0 -0 -0 -0 -0 -0 -0 -0 -0 -0 -0 -0 -0 -0 -0 -0 -0 -0 -0 -0 -0 -0 -0 -0 -0 -0 -0 -0 -0 -0 -0 -0 -0 -0 -0 -0 -24 -0 -0 -0 -0 -0 -0 -0 -30 -111
-0 -0 -0 -0 -0 -0 -0 -0 -0 -0 -0 -0 -0 -0 -0 -0 -0 -0 -0 -0 -0 -0 -0 -0 -0 -0 -0 -0 -0 -0 -0 -0 -0 -0 -0 -0 -0 -0 -0 -0 -0 -0 -0 -0 -0 -0 -0 -129 -102
-0 -0 -0 -0 -0 -0 -0 -0 -0 -0 -0 -0 -0 -0 -0 -0 -0 -0 -0 -0 -0 -0 -0 -0 -0 -0 -0 -0 -0 -0 -0 -0 -0 -0 -0 -0 -0 -0 -0 -0 -0 -0 -0 -0 -0 -0 -0 -174 -132
-0 -0 -0 -0 -0 -0 -0 -0 -0 -0 -0 -0 -0 -0 -0 -0 -0 -0 -0 -0 -0 -0 -0 -0 -0 -0 -0 -0 -0 -0 -0 -0 -0 -0 -0 -0 -0 -0 -0 -0 -0 -0 -0 -0 -0 -0 -0 -0 -0
-0 -0 -0 -0 -0 -0 -0 -0 -0 -0 -0 -0 -0 -0 -0 -0 -0 -0 -0 -0 -0 -0 -0 -0 -0 -0 -0 -0 -0 -0 -0 -0 -0 -0 -0 -0 -0 -0 -0 -0 -0 -0 -0 -0 -0 -0 -0 -0 -0
-0 -0 -0 -0 -0 -0 -0 -0 -0 -0 -0 -0 -0 -0 -0 -0 -0 -0 -0 -0 -0 -0 -0 -0 -0 -0 -0 -0 -0 -0 -0 -0 -0 -0 -0 -0 -0 -0 -0 -0 -0 -0 -0 -0 -0 -0 -0 -0 -0
-0 -0 -0 -0 -0 -0 -0 -0 -0 -0 -0 -0 -0 -0 -0 -0 -0 -0 -0 -0 -0 -0 -0 -0 -0 -0 -0 -0 -0 -0 -0 -0 -0 -0 -0 -0 -0 -0 -0 -0 -0 -0 -0 -0 -0 -0 -0 -0 -0
Wind_Speed
7 6 3 2 4 4 4 6 2 6 3 3 4 6 8 6 8 8 4 11 9 16 13 18 21 20 19 17 16 16 14 14 13 13 13 12 12 12 11 9 8 7 6 7 7 6 6 7 5
6 3 1 3 4 1 6 4 5 7 5 1 3 4 3 4 3 3 3 8 10 14 13 16 22 21 20 18 16 15 15 15 15 14 14 13 13 14 13 12 11 10 9 9 8 8 7 8 7
7 1 3 4 4 5 5 5 5 8 8 6 2 3 6 5 3 5 5 12 9 12 12 15 23 21 20 19 18 17 16 16 16 15 15 16 15 14 14 13 13 13 12 11 11 10 10 9 9
3 4 3 2 6 7 6 7 2 7 6 4 5 5 4 5 6 7 8 11 11 10 11 16 21 20 20 18 18 16 16 16 15 16 16 16 16 15 16 15 15 14 14 14 13 12 12 11 11
4 3 1 2 6 6 7 8 3 6 5 4 4 5 5 3 3 7 10 11 12 8 8 12 20 20 19 19 17 16 16 16 15 16 16 15 15 15 14 17 16 16 16 15 15 14 13 13 13
4 3 1 4 5 5 6 8 2 3 4 2 1 2 6 2 6 8 9 10 8 12 9 9 18 19 18 17 16 16 15 15 14 14 14 12 13 13 14 16 16 16 16 17 17 16 15 13 13
6 4 4 3 4 6 6 4 4 1 3 5 3 5 6 6 7 7 7 7 7 7 8 7 9 14 18 16 16 15 14 14 13 13 12 11 10 10 11 13 14 15 16 16 17 16 15 13 14
5 4 3 5 3 8 4 1 2 2 6 1 2 5 8 5 8 6 5 5 5 6 6 7 6 7 7 7 15 14 14 14 12 11 12 11 10 10 10 10 11 13 16 16 17 16 15 15 12
4 3 5 7 7 8 3 2 0 1 4 3 6 5 5 2 8 7 4 2 3 4 6 7 7 6 6 6 6 11 15 13 13 12 13 9 4 4 5 7 10 12 13 13 14 16 16 15 16
5 6 11 9 7 7 5 2 3 4 8 11 6 6 2 6 8 11 9 11 8 8 7 8 7 7 6 4 5 4 4 3 4 5 6 4 5 4 5 8 11 13 13 14 14 13 14 16 4
7 10 15 8 9 3 6 9 3 3 9 8 8 15 3 7 9 11 12 13 18 12 6 8 7 7 8 5 4 2 2 3 3 5 5 5 3 3 3 3 3 3 7 3 4 4 2 4 4
4 11 18 12 5 3 8 5 13 10 19 15 14 9 5 10 15 15 15 16 9 9 10 8 8 7 7 4 4 4 3 3 3 4 6 4 3 4 4 3 4 4 3 3 3 2 3 4 5
8 12 8 8 10 8 13 13 15 16 22 14 10 8 11 13 19 16 17 9 6 9 8 9 8 7 6 6 3 3 4 4 4 4 4 4 4 5 4 4 4 4 3 3 3 3 3 3 5
6 9 9 4 10 13 16 20 4 13 17 13 11 12 11 14 20 15 8 11 11 8 9 9 9 7 7 5 5 4 4 5 4 4 5 5 4 5 4 5 6 4 4 3 3 4 3 3 4
4 4 8 10 11 8 14 20 10 18 13 12 16 13 11 15 9 17 21 18 9 7 9 11 9 7 7 6 5 4 4 4 4 4 5 5 6 6 6 5 5 4 3 4 3 3 2 2 3
1 2 4 5 6 7 9 17 10 19 10 16 15 12 10 13 17 21 12 8 10 12 13 9 8 8 7 5 4 4 4 4 4 4 3 5 6 7 5 4 5 3 3 3 3 2 2 3 4
2 9 7 8 9 5 9 16 18 7 7 13 16 12 10 14 11 16 9 9 11 12 13 10 8 8 7 5 4 5 5 3 4 3 3 4 5 5 5 4 3 4 3 3 3 2 3 3 4
7 6 6 13 1 4 12 16 19 17 10 16 13 14 12 12 20 5 10 11 14 13 12 10 6 7 6 4 3 3 1 2 3 3 3 3 3 4 4 3 3 3 3 3 4 3 3 3 4
14 9 11 14 2 3 8 9 18 12 7 11 12 11 13 12 4 5 8 13 15 12 12 11 9 7 4 2 3 1 2 2 3 2 3 4 3 4 5 3 3 4 4 4 5 3 4 2 3
9 14 22 15 6 4 11 13 17 15 13 11 13 14 12 4 3 3 9 10 13 15 12 9 8 7 5 2 2 2 1 3 2 2 3 4 4 4 4 4 4 5 4 5 5 4 3 2 3
19 20 17 17 5 5 6 10 16 13 8 7 10 11 9 9 8 7 8 10 12 13 12 10 8 8 5 4 2 1 1 1 2 2 2 2 3 3 4 4 4 5 4 5 4 4 4 3 1
23 17 14 14 4 6 4 7 13 12 12 7 10 8 8 0 5 8 10 10 12 10 7 8 8 7 5 5 2 2 2 1 1 1 2 3 2 3 3 3 4 5 4 5 4 3 2 3 4
12 10 12 9 5 1 3 4 7 5 10 11 11 9 6 4 8 11 12 13 9 9 8 7 7 6 5 4 3 2 2 1 1 1 4 2 2 2 2 3 4 5 4 5 6 4 3 2 3
5 6 4 2 3 4 11 7 6 6 9 8 7 4 4 6 9 10 11 11 9 6 7 7 7 5 5 4 3 4 4 2 1 2 2 3 2 1 1 3 4 4 4 5 4 4 4 4 4
10 10 1 3 1 6 7 9 15 10 10 12 12 7 5 9 9 14 16 13 10 9 8 6 7 5 5 5 4 4 4 3 1 2 2 3 2 1 0 3 4 3 4 5 5 5 4 4 3
17 13 9 8 5 5 7 9 9 19 22 9 6 3 8 9 7 13 12 12 12 10 9 7 7 6 6 5 4 3 3 2 0 2 1 1 1 1 1 3 4 5 5 5 4 3 3 3 3
7 16 10 4 2 1 5 5 7 7 8 7 7 6 9 9 9 11 10 10 10 10 9 9 7 5 6 5 4 3 2 2 1 2 1 0 1 1 2 4 4 5 6 6 5 4 4 4 3
15 12 7 4 7 5 5 3 6 7 10 6 6 9 7 7 9 10 10 10 8 8 7 7 6 7 6 5 4 3 3 2 1 2 3 3 2 2 3 3 4 4 5 5 5 4 5 6 3
5 10 4 6 6 6 1 7 8 9 8 9 9 8 10 12 12 12 10 8 8 7 7 7 6 6 6 5 3 3 2 2 3 3 2 3 3 4 3 4 5 6 5 6 7 7 7 8 7
20 10 9 11 7 3 3 8 4 7 7 8 8 8 7 8 10 11 11 9 8 8 7 7 6 6 6 5 4 3 4 3 3 3 3 3 3 3 4 5 7 7 6 7 8 7 5 7 7
Wind_Direction
165 152 151 84 62 70 256 258 259 295 335 250 110 154 192 168 168 210 315 179 137 157 163 173 179 187 190 190 191 192 192 196 201 207 212 218 217 217 218 219 229 242 254 258 266 265 268 266 266
144 154 49 90 101 105 258 246 229 230 238 268 190 157 188 243 199 260 118 194 160 159 165 171 183 189 191 192 193 193 197 202 210 216 219 224 230 228 233 231 229 237 243 250 257 266 261 260 260
167 208 91 114 150 199 226 222 250 292 254 207 215 279 155 222 214 197 222 158 146 163 167 177 186 188 191 192 194 196 200 206 213 221 229 229 231 236 233 239 245 240 244 246 243 245 257 261 256
167 23 46 109 227 252 229 265 183 316 332 214 162 257 265 217 162 191 150 153 154 164 173 181 185 188 191 194 197 200 204 212 218 225 235 238 235 240 233 238 248 250 253 252 255 257 247 254 257
41 57 96 239 247 257 243 255 265 281 281 237 155 239 255 249 146 152 150 157 164 161 167 176 183 188 193 197 202 204 210 216 220 228 238 241 239 242 239 239 245 250 256 257 259 258 255 251 250
53 95 84 237 239 247 262 250 209 213 274 305 207 126 257 306 165 187 158 166 162 165 164 172 187 189 194 199 204 206 214 219 225 234 241 238 241 248 250 250 246 250 251 254 258 259 256 255 246
130 108 234 257 245 272 240 191 204 355 299 286 176 173 256 264 218 169 165 142 156 149 157 172 188 193 196 200 205 208 217 221 222 229 236 234 239 252 256 257 258 259 260 261 260 264 268 262 250
123 116 250 235 217 271 237 234 104 52 308 50 150 244 259 252 149 116 87 140 155 157 167 177 170 184 189 192 204 207 215 215 219 224 230 229 233 240 252 261 270 268 266 262 256 257 258 258 253
119 99 248 237 173 244 230 349 27 186 235 250 217 237 251 120 113 112 129 191 178 182 183 171 173 179 177 188 211 212 220 222 223 223 225 222 206 228 247 252 257 265 263 259 262 261 261 260 251
159 167 227 200 190 234 182 174 344 340 318 286 257 283 322 150 171 171 181 203 204 202 195 182 169 175 171 183 198 214 231 230 219 209 213 206 199 209 220 239 250 260 257 256 265 266 271 257 215
194 209 232 275 238 347 293 287 206 267 280 248 282 293 217 182 206 190 204 204 208 200 186 179 173 172 167 182 192 198 221 230 228 223 212 206 196 219 236 227 256 279 270 287 290 293 278 268 215
187 235 237 249 253 255 256 323 298 259 258 275 278 255 192 203 210 201 209 212 192 189 187 166 174 167 174 173 183 187 205 228 231 224 213 186 195 208 224 218 226 234 236 246 251 256 256 252 217
226 238 240 264 288 255 273 261 254 285 283 281 269 259 225 208 216 218 214 219 180 198 165 170 159 167 174 182 173 198 221 228 226 213 206 190 201 214 211 217 215 222 211 216 231 237 236 226 213
222 225 248 261 273 272 277 269 258 257 276 288 289 257 237 212 218 220 206 213 200 166 162 153 164 175 167 177 183 212 218 234 228 220 223 211 209 214 214 220 219 216 204 216 226 229 223 221 196
230 265 268 229 235 247 270 277 248 266 271 262 269 260 241 226 216 223 222 214 162 158 151 162 163 166 174 181 209 221 224 219 226 226 226 218 209 216 216 221 227 213 196 209 220 227 198 210 203
303 160 261 190 222 241 186 278 263 266 256 261 261 261 244 242 217 228 228 176 147 142 159 154 159 166 174 196 214 228 233 225 232 228 224 222 218 216 216 216 219 187 190 198 198 181 184 203 194
327 258 256 298 209 211 184 279 266 269 251 271 271 270 256 258 238 231 192 150 148 150 149 152 158 170 176 203 215 232 236 228 232 225 224 234 230 222 206 207 211 174 187 198 176 170 161 178 187
195 245 228 246 321 171 270 266 272 271 249 256 268 267 265 251 246 222 152 153 147 150 149 144 151 161 172 188 214 234 262 252 242 241 248 258 242 230 203 208 205 178 170 180 173 158 176 168 186
224 224 238 253 197 230 250 271 274 278 252 260 260 265 255 240 235 184 155 153 147 146 136 141 149 172 157 167 202 213 236 254 258 244 261 270 262 230 199 194 180 179 174 176 167 145 165 146 143
198 227 245 276 229 225 271 272 283 285 265 251 265 274 264 221 204 135 129 143 155 145 146 144 158 170 178 166 195 158 207 250 254 255 276 280 280 221 198 183 191 174 155 160 165 149 135 118 159
216 216 232 245 359 257 300 289 286 284 262 280 260 247 265 227 183 139 136 138 142 144 150 157 164 173 166 173 110 56 321 310 341 354 310 307 313 208 190 194 189 166 158 162 158 155 151 127 107
219 208 240 251 160 244 112 288 292 302 287 246 279 293 285 212 121 139 134 139 144 154 140 147 158 169 164 147 127 152 191 245 245 263 279 305 295 215 210 206 177 162 152 154 168 176 160 127 142
231 183 207 225 210 317 247 274 270 309 290 284 284 288 278 139 145 147 145 145 143 144 155 151 160 158 144 144 148 155 188 220 278 313 290 322 305 242 190 183 174 162 157 159 171 154 161 127 133
176 92 69 71 127 252 236 196 252 216 226 268 271 292 109 126 131 132 134 139 136 135 139 148 158 150 144 143 149 171 158 144 32 308 306 345 315 326 272 179 175 168 157 160 165 145 155 172 149
162 122 296 317 258 221 202 194 245 261 238 231 253 249 169 138 151 149 152 152 147 151 155 160 150 150 157 146 174 161 154 148 11 298 296 17 21 17 310 166 159 156 155 150 147 151 164 185 161
181 171 161 188 202 243 191 211 247 218 233 230 240 215 149 145 166 160 159 153 155 158 162 156 153 159 152 168 183 150 169 108 307 300 358 48 52 40 251 158 155 149 136 140 145 136 137 138 127
190 210 161 128 229 128 228 266 299 222 218 230 222 169 175 151 161 152 159 158 153 161 169 162 163 153 164 186 150 168 140 111 2 12 50 38 25 92 151 160 140 132 131 146 149 138 126 133 122
185 138 168 204 193 228 287 251 221 200 215 195 202 199 155 131 149 153 164 162 160 169 158 159 169 165 178 173 168 155 172 121 154 78 60 41 21 72 102 124 114 113 121 131 122 111 122 117 108
149 176 139 154 151 168 180 260 215 200 198 210 219 183 159 165 163 166 165 168 161 154 152 174 167 161 176 174 163 141 132 98 105 97 68 50 43 54 76 105 114 117 120 117 114 123 121 119 115
199 180 164 191 193 173 166 263 250 226 214 202 199 159 155 149 160 163 166 153 156 163 158 184 175 176 187 176 148 146 117 101 101 118 85 52 68 87 113 121 121 124 123 118 126 127 121 132 133